User: anonymous   Login
Location: Unspecified
(0.0000°N, 0.0000°E)
Time: 13:49:24
(UTC+00:00)
Language:

ISIS 1 - Orbit

View from above orbital plane
View from above orbital plane
View from above satellite
View from above satellite

Ground track
Ground track

The orbit data is extracted from the following two-line orbital elements,

1  3669U 69009A   17114.85264336 +.00000095 +00000-0 +53185-4 0  9999
2  3669 088.4352 154.1858 1712881 143.7632 229.2718 11.29438070982614
Epoch (UTC): 24 April 2017 20:27:48
Eccentricity: 0.1712881
inclination: 88.4352°
perigee height: 576 km
apogee height: 3450 km
right ascension of ascending node: 154.1858°
argument of perigee: 143.7632°
revolutions per day: 11.29438070
mean anomaly at epoch: 229.2718°
orbit number at epoch: 98261

The dashed part of the orbit path shows where the satellite is in the earth's shadow,  

DLR